Skip Page Navigation
NASA JPL Caltech
NASA Logo - Jet Propulsion Laboratory + View the NASA Portal
+ Center for Near-Earth Object Studies
JPL Home Earth Solar System Stars & Galaxies Technology
JPL Solar System Dynamics
BODIES ORBITS EPHEMERIDES TOOLS PHYSICAL DATA DISCOVERY FAQ SITE MAP
IMPORTANT: The SSD Announcement email list is now available. Major changes are coming in the near future, including possible hostname and/or URL changes. To be notified of such changes, subscribe to this email list.

Please visit this page for more details.


JPL Small-Body Database Browser
Search: [ help ]  
47067 (1998 XB62)
Classification: Main-belt Asteroid          SPK-ID: 2047067
Ephemeris | Orbit Diagram | Orbital Elements | Mission Design | Physical Parameters | Discovery Circumstances | Close-Approach Data ]

[ show orbit diagram ]
Orbital Elements at Epoch 2459000.5 (2020-May-31.0) TDB
Reference: JPL 17 (heliocentric ecliptic J2000)
 Element Value Uncertainty (1-sigma)   Units 
e .3001051912593114 5.9097e-08  
a 2.663535921596967 1.5227e-08 au
q 1.864194964420063 1.5729e-07 au
i 1.666493044945252 7.5342e-06 deg
node 191.055581703273 0.00014775 deg
peri 124.8027109524882 0.00014824 deg
M 52.52113868353134 1.1072e-05 deg
tp 2458768.857684924891
(2019-Oct-12.35768492)
4.8225e-05 TDB
period 1587.765145944705
4.35
1.3616e-05
3.728e-08
d
yr
n .2267337842246206 1.9443e-09 deg/d
Q 3.462876878773871 1.9797e-08 au
  Orbit Determination Parameters
   # obs. used (total)      461  
   data-arc span      15122 days (41.40 yr)  
   first obs. used      1976-10-22  
   last obs. used      2018-03-18  
   planetary ephem.      DE431  
   SB-pert. ephem.      SB431-N16  
   condition code      0  
   norm. resid. RMS      .58902  
   source      ORB  
   producer      Otto Matic  
   solution date      2018-Oct-04 00:03:21  

Additional Information
 Earth MOID = .85126 au 
 Jupiter MOID = 1.86051 au 
 T_jup = 3.318 
[ show covariance matrix ]

Ephemeris | Orbit Diagram | Orbital Elements | Mission Design | Physical Parameters | Discovery Circumstances | Close-Approach Data ]

Physical Parameter Table
Parameter Symbol Value Units Sigma Reference Notes
absolute magnitude H 15.7   n/a MPO436111  
diameter diameter 1.713 km 0.209 urn:nasa:pds:neowise_diameters_albedos::2.0[mainbelt] (http://adsabs.harvard.edu/abs/2011ApJ...741...68M)  
geometric albedo albedo 0.263   0.050 urn:nasa:pds:neowise_diameters_albedos::2.0[mainbelt] (http://adsabs.harvard.edu/abs/2011ApJ...741...68M)  

47067 (1998 XB62)          Discovered 1998-Dec-15 by Spacewatch at Kitt Peak
Reference: 20020921/Numbers.arcLast Updated: 2004-04-19

[ show close-approach data ]
Alternate Designations
 1998 XB62 = 1976 UD8 = 1993 OA12 
Ephemeris | Orbit Diagram | Orbital Elements | Mission Design | Physical Parameters | Discovery Circumstances | Close-Approach Data ]
ABOUT SSD CREDITS/AWARDS PRIVACY/COPYRIGHT GLOSSARY LINKS
FirstGov 2020-Feb-27 08:16 UT
(server date/time)  
NASA Home Page
Site Manager:   Ryan S. Park
Webmaster  Alan B. Chamberlin